Wind_Speed
20 13 12 14 13 12 13 10 18 13 16 15 15 10 11 12 10 5 10 9 10 13
22 18 12 13 15 16 15 11 9 10 14 14 13 15 13 13 13 9 12 9 7 9
22 23 20 17 15 15 12 17 16 18 19 15 15 16 15 16 12 13 14 13 12 13
19 18 19 21 18 15 16 18 16 17 15 16 18 18 18 18 14 17 16 12 16 16
23 21 21 17 16 16 14 16 17 16 16 15 16 16 18 18 15 16 17 16 14 16
27 23 21 22 18 18 17 14 14 13 13 13 15 14 14 15 14 16 19 15 15 15
28 26 25 22 17 17 18 14 10 12 10 12 14 12 11 13 15 15 16 16 18 18
26 23 22 23 22 21 14 14 16 12 11 12 11 12 11 14 15 14 13 12 11 14
27 26 24 22 21 19 21 20 21 18 18 15 17 14 16 18 19 17 15 15 15 14
23 25 25 24 23 21 20 19 20 21 21 22 20 21 21 20 19 19 19 17 17 15
19 19 17 18 18 19 20 19 18 20 21 22 23 21 21 22 18 18 18 18 14 15
17 16 14 13 15 16 17 17 18 22 26 24 23 23 20 18 17 18 17 13 13 14
15 11 7 4 7 10 13 18 20 22 25 25 23 21 14 6 8 10 9 3 2 4
8 6 3 3 9 3 7 6 9 13 17 18 17 13 10 10 7 5 4 3 1 2
Wind_Direction
200 197 202 215 202 225 217 242 237 233 232 241 243 246 255 266 264 287 270 287 275 266
205 194 207 222 209 205 214 230 224 225 244 238 244 245 241 258 258 258 265 260 285 287
215 206 202 217 212 212 223 228 234 247 244 239 238 245 246 246 250 259 258 264 271 262
214 217 223 220 218 224 234 239 240 246 252 246 244 242 238 243 232 251 251 258 250 262
212 211 224 223 233 249 253 251 252 255 256 257 251 246 248 253 250 245 252 261 274 256
208 211 214 224 220 234 249 248 243 243 254 261 265 259 259 264 261 255 254 258 264 265
204 207 212 215 216 220 244 247 253 243 258 259 252 250 267 272 277 272 260 268 262 260
210 208 210 215 223 232 227 237 247 244 247 262 273 261 254 261 269 276 270 276 285 282
206 208 212 217 220 225 224 230 233 228 231 232 238 242 252 257 265 270 268 263 257 256
206 211 214 219 229 237 241 245 246 243 236 241 244 247 258 260 260 265 265 263 260 265
207 214 214 220 228 239 247 247 251 249 243 249 262 263 262 268 263 256 255 263 263 272
214 205 204 217 229 242 249 251 259 253 258 260 262 262 258 262 259 246 249 258 266 267
176 171 172 231 254 254 251 243 255 259 256 254 251 249 245 245 241 240 237 207 333 300
175 197 92 4 9 273 248 251 251 255 256 247 226 191 211 213 220 212 161 137 73 343
Height
1560 1562 1565 1566 1567 1569 1572 1574 1575 1575 1576 1576 1576 1576 1578 1579 1579 1581 1582 1584 1584 1584
1557 1560 1563 1565 1566 1566 1569 1571 1571 1573 1574 1574 1575 1576 1576 1577 1577 1578 1580 1582 1584 1585
1553 1557 1559 1561 1562 1565 1566 1567 1568 1568 1570 1571 1573 1574 1575 1575 1577 1577 1579 1580 1582 1581
1548 1552 1556 1559 1560 1562 1564 1565 1565 1565 1565 1566 1568 1570 1572 1572 1574 1575 1575 1576 1576 1576
1544 1548 1552 1555 1557 1559 1561 1562 1563 1564 1563 1563 1565 1565 1566 1567 1567 1570 1571 1572 1573 1573
1540 1544 1548 1550 1554 1556 1558 1559 1561 1561 1562 1562 1564 1564 1563 1564 1565 1565 1567 1568 1571 1571
1534 1539 1543 1546 1549 1552 1554 1556 1558 1559 1560 1561 1563 1563 1562 1562 1562 1563 1563 1565 1565 1566
1530 1534 1538 1541 1545 1548 1551 1553 1555 1557 1559 1560 1561 1560 1560 1560 1560 1561 1561 1562 1562 1562
1526 1530 1533 1537 1539 1543 1546 1548 1551 1553 1555 1557 1555 1556 1556 1557 1559 1559 1559 1559 1559 1559
1524 1526 1529 1532 1536 1539 1541 1544 1546 1548 1550 1550 1551 1552 1553 1554 1554 1554 1555 1555 1555 1555
1521 1526 1527 1529 1531 1534 1537 1539 1541 1544 1545 1545 1546 1547 1548 1548 1550 1551 1551 1552 1553 1553
1519 1520 1522 1526 1528 1531 1533 1535 1537 1537 1541 1540 1541 1542 1543 1544 1545 1547 1547 1548 1549 1550
1515 1515 1520 1525 1526 1526 1528 1531 1532 1533 1534 1534 1535 1536 1536 1540 1542 1543 1543 1544 1545 1545
1512 1518 1513 1522 1522 1523 1525 1527 1527 1528 1529 1530 1530 1529 1534 1538 1542 1542 1542 1542 1543 1543